Regional Weather Roundup
Issued by NWS

Home | Current Version | Previous Version | Graphics & Text | Print | Product List | Glossary On
Versions: 1 2 3 4 5 6 7 8 9 10 11 12 13 14 15 16 17 18 19 20 21 22 23 24 25 26 27 28 29 30 31 32 33 34 35 36 37 38 39 40 41 42 43 44 45 46 47 48 49 50
000
ASUS43 KIND 230909
RWRIN

WEATHER ROUNDUP FOR INDIANA
NATIONAL WEATHER SERVICE INDIANAPOLIS IN
500 AM EDT WED JUL 23 2014

NOTE: "FAIR" INDICATES FEW OR NO CLOUDS BELOW 12,000 FEET WITH NO
SIGNIFICANT WEATHER AND/OR OBSTRUCTIONS TO VISIBILITY.

* - STATION DOES NOT REPORT WEATHER SUCH AS PRECIPITATION OR FOG.

+ - STATION NOT QUALITY CONTROLLED BY THE NATIONAL WEATHER SERVICE.
    USE DATA WITH CAUTION...ESPECIALLY DEWPOINT AND RELATIVE
    HUMIDITY OBSERVATIONS.

INZ001>003-010>013-019-020-231000-
NORTHWEST INDIANA

CITY           SKY/WX    TMP DP  RH WIND       PRES   REMARKS
GARY /AIRPORT/ CLOUDY    68  61  78 N16       30.05R
KNOX *+        CLOUDY    69  66  92 W6        29.98F
LA PORTE +     CLOUDY    69  69 100 N12       30.00S FOG
MICHIGAN CITY+ CLOUDY    66  64  94 N9G18     30.01S
MONTICELLO +   HVY RAIN  69  68  96 E6        29.99F
RENSSELAER +   CLOUDY    72  70  94 W6        30.03R
VALPARAISO     CLOUDY    68  66  93 N9        30.02R

$$

LMZ046-743>745-231000-
SOUTHERN LAKE MICHIGAN

STATION/POSITION TIME  TEMP WIND        PRES
                       AIR  DIR/SP/G
                 (UTC) (F)  (DEG/KT/KT) (MB)
BURNS HARBOR     0900   69   10/ 19/ 23 1016.9R
MICHIGAN CITY    0900   68  350/ 20/ 24   N/A

$$

INZ004-005-014>016-021>024-231000-
NORTH CENTRAL INDIANA

CITY           SKY/WX    TMP DP  RH WIND       PRES   REMARKS
GOSHEN         LGT RAIN  70  66  87 W9        29.97S
LOGANSPORT +   HVY RAIN  68  63  83 SW7       30.04F
PERU/GRISSOM   RAIN      72  72 100 NW6       30.02F
ROCHESTER +    TSTM      72  68  88 SW7       30.01R
SOUTH BEND     CLOUDY    69  66  90 W7        29.98S
WARSAW +       LGT RAIN  68  64  88 SW7       29.98R

$$

INZ006>009-017-018-025>027-231000-
NORTHEAST INDIANA

CITY           SKY/WX    TMP DP  RH WIND       PRES   REMARKS
ANGOLA *+      MOCLDY    70  61  73 VRB6      29.94F
AUBURN +       CLOUDY    72  61  68 SW6       29.97R
FORT WAYNE     LGT RAIN  72  65  78 SW10      30.01R
HUNTINGTON +   CLOUDY    71  65  81 SW3       30.02R

$$

INZ028-029-035-036-043>045-051>053-231000-
WEST CENTRAL INDIANA

CITY           SKY/WX    TMP DP  RH WIND       PRES   REMARKS
GREENCASTLE +  CLOUDY    72  68  88 S5        30.02S
LAFAYETTE      CLOUDY    73  70  90 CALM      30.01R
TERRE HAUTE    CLOUDY    73  69  87 CALM      30.00F

$$

INZ030>032-037>040-046>048-054>057-064-065-231000-
CENTRAL INDIANA

CITY           SKY/WX    TMP DP  RH WIND       PRES   REMARKS
CP ATTERBURY + FOG       68  64  88 CALM      30.04R VSB 1
INDIANAPOLIS   CLOUDY    73  69  87 SW6       30.01R
-EAGLE CREEK   CLOUDY    75  67  76 W5        30.01R
KOKOMO *+      MOCLDY    73  70  88 N14G21    30.06R
MARION +       LGT RAIN  73  65  78 N6        30.08R
MT COMFORT *+  MOCLDY    72 N/A N/A CALM      30.03R
SHELBYVILLE    PTCLDY    72  68  87 CALM      30.03R
ZIONSVILLE +   CLOUDY    74  67  80 CALM      30.03S

$$

INZ033-034-041-042-049-050-058-059-231000-
EAST CENTRAL INDIANA

CITY           SKY/WX    TMP DP  RH WIND       PRES   REMARKS
MUNCIE         CLOUDY    74  67  78 N9        30.06R

$$

INZ060-061-067>069-081>083-085>088-231000-
SOUTHWEST INDIANA

CITY           SKY/WX    TMP DP  RH WIND       PRES   REMARKS
EVANSVILLE     CLEAR     75  70  84 S5        30.02F
HUNTINGBURG *+ CLEAR     72  66  83 S3        30.03S
WASHINGTON +   PTCLDY    70  70  99 CALM      30.01R FOG

$$

INZ062-063-066-070>080-084-089>092-231000-
SOUTH CENTRAL AND SOUTHEAST INDIANA

CITY           SKY/WX    TMP DP  RH WIND       PRES   REMARKS
BEDFORD +      PTCLDY    70  66  88 CALM      30.02  FOG
BLOOMINGTON    MOCLDY    73  68  84 W3        30.03R
NORTH VERNON + FOG       68  68 100 CALM      30.03  VSB 3/4
SEYMOUR +      CLEAR     64  59  82 S6        30.01S HAZE

$$



USA.gov is the U.S. government's official web portal to all federal, state and local government web resources and services.